| time (UTC) | temp F | wind direction | speed knots | gust knots | rain 1hr in | rain 24hr in | rain mn in | humidity % | barometer mb |
| 20260507073004 | 50 | 185 | 0.0 | 0.0 | 0.00 | 0.31 | 0.00 | 91 | 1012.6 |
| 20260507071504 | 50 | 185 | 0.0 | 0.0 | 0.00 | 0.31 | 0.00 | 91 | 1012.7 |
| 20260507070004 | 50 | 185 | 0.0 | 0.0 | 0.00 | 0.35 | 0.00 | 91 | 1012.5 |
| 20260507064501 | 50 | 184 | 0.0 | 0.0 | 0.00 | 0.35 | 0.00 | 91 | 1012.9 |
| 20260507063100 | 51 | 184 | 0.0 | 0.0 | 0.00 | 0.35 | 0.00 | 91 | 1012.8 |
| 20260507061556 | 51 | 184 | 0.0 | 0.0 | 0.00 | 0.35 | 0.00 | 91 | 1012.7 |
| 20260507060055 | 51 | 184 | 0.0 | 0.0 | 0.00 | 0.37 | 0.00 | 91 | 1012.8 |
| 20260507054635 | 52 | 184 | 0.0 | 0.0 | 0.00 | 0.37 | 0.00 | 90 | 1012.9 |
| 20260507053053 | 52 | 184 | 0.0 | 0.0 | 0.00 | 0.37 | 0.00 | 88 | 1013.0 |
| 20260507051547 | 53 | 184 | 0.0 | 0.0 | 0.00 | 0.37 | 0.00 | 86 | 1013.0 |
| 20260507050050 | 53 | 184 | 0.0 | 0.0 | 0.00 | 0.37 | 0.00 | 87 | 1012.9 |
| 20260507044548 | 54 | 184 | 0.0 | 0.0 | 0.00 | 0.37 | 0.00 | 86 | 1013.1 |
| 20260507043045 | 54 | 184 | 0.0 | 0.0 | 0.00 | 0.37 | 0.00 | 84 | 1013.2 |
| 20260507041509 | 54 | 184 | 0.0 | 0.0 | 0.00 | 0.37 | 0.00 | 82 | 1013.1 |
| 20260507040007 | 54 | 184 | 0.0 | 3.5 | 0.00 | 0.37 | 0.37 | 82 | 1012.8 |
| 20260507034505 | 54 | 185 | 0.0 | 6.1 | 0.00 | 0.37 | 0.37 | 85 | 1012.5 |
| 20260507033006 | 54 | 146 | 1.7 | 5.2 | 0.00 | 0.37 | 0.37 | 92 | 1012.6 |
| 20260507031503 | 55 | 314 | 0.0 | 0.0 | 0.00 | 0.37 | 0.37 | 95 | 1012.4 |
| 20260507030005 | 55 | 315 | 0.0 | 0.0 | 0.00 | 0.37 | 0.37 | 96 | 1012.5 |
| 20260507024600 | 55 | 314 | 0.0 | 0.0 | 0.00 | 0.37 | 0.37 | 95 | 1012.5 |
| 20260507023106 | 55 | 315 | 0.0 | 0.0 | 0.00 | 0.37 | 0.37 | 95 | 1012.6 |
| 20260507021602 | 55 | 315 | 0.0 | 0.0 | 0.00 | 0.37 | 0.37 | 95 | 1012.8 |
| 20260507020100 | 55 | 315 | 0.0 | 0.0 | 0.00 | 0.37 | 0.37 | 95 | 1012.8 |
| 20260507014602 | 56 | 314 | 0.0 | 0.0 | 0.00 | 0.37 | 0.37 | 94 | 1011.6 |
| 20260507013053 | 56 | 313 | 0.0 | 0.0 | 0.00 | 0.37 | 0.37 | 94 | 1012.3 |
| 20260507011552 | 56 | 313 | 0.0 | 0.0 | 0.00 | 0.37 | 0.37 | 94 | 1011.3 |
| 20260507010051 | 56 | 309 | 0.0 | 0.0 | 0.00 | 0.37 | 0.37 | 94 | 1011.6 |
| 20260507004523 | 56 | 308 | 0.0 | 0.0 | 0.00 | 0.37 | 0.37 | 94 | 1010.6 |
| 20260507003021 | 56 | 308 | 0.0 | 1.7 | 0.00 | 0.37 | 0.37 | 93 | 1011.1 |
| 20260507001524 | 56 | 308 | 0.0 | 5.2 | 0.00 | 0.37 | 0.37 | 93 | 1011.2 |
| 20260507000022 | 56 | 344 | 0.0 | 4.3 | 0.00 | 0.37 | 0.37 | 93 | 1010.6 |
| 20260506234515 | 57 | 345 | 0.0 | 1.7 | 0.00 | 0.37 | 0.37 | 92 | 1011.5 |
| 20260506233015 | 57 | 345 | 0.0 | 4.3 | 0.00 | 0.37 | 0.37 | 92 | 1010.9 |
| 20260506231545 | 57 | 355 | 0.9 | 4.3 | 0.00 | 0.37 | 0.37 | 92 | 1010.4 |
| 20260506230045 | 57 | 19 | 0.9 | 3.5 | 0.00 | 0.37 | 0.37 | 91 | 1010.6 |
| 20260506224541 | 57 | 20 | 0.0 | 1.7 | 0.00 | 0.37 | 0.37 | 90 | 1010.9 |
| 20260506223039 | 57 | 20 | 0.9 | 1.7 | 0.00 | 0.37 | 0.37 | 90 | 1011.2 |
| 20260506221538 | 57 | 19 | 1.7 | 4.3 | 0.00 | 0.37 | 0.37 | 89 | 1010.8 |
| 20260506220036 | 58 | 45 | 0.0 | 4.3 | 0.00 | 0.37 | 0.37 | 90 | 1010.7 |
| 20260506214606 | 58 | 40 | 2.6 | 4.3 | 0.00 | 0.37 | 0.37 | 89 | 1010.7 |
| 20260506213005 | 58 | 46 | 0.9 | 4.3 | 0.00 | 0.37 | 0.37 | 88 | 1010.4 |
| 20260506211507 | 58 | 47 | 0.9 | 5.2 | 0.00 | 0.37 | 0.37 | 88 | 1010.2 |
| 20260506210007 | 58 | 36 | 2.6 | 6.1 | 0.00 | 0.37 | 0.37 | 88 | 1010.5 |
| 20260506204502 | 58 | 325 | 0.0 | 4.3 | 0.00 | 0.37 | 0.37 | 88 | 1010.6 |
| 20260506203003 | 58 | 300 | 0.0 | 3.5 | 0.00 | 0.37 | 0.37 | 88 | 1010.5 |
| 20260506201559 | 57 | 300 | 1.7 | 4.3 | 0.00 | 0.37 | 0.37 | 88 | 1010.5 |
| 20260506200059 | 57 | 161 | 0.0 | 0.0 | 0.00 | 0.37 | 0.37 | 89 | 1010.6 |
| 20260506194628 | 57 | 161 | 0.0 | 0.0 | 0.00 | 0.37 | 0.37 | 89 | 1010.4 |
| 20260506193104 | 57 | 161 | 0.0 | 0.0 | 0.00 | 0.37 | 0.37 | 90 | 1010.5 |
| 20260506191554 | 56 | 128 | 0.0 | 0.0 | 0.00 | 0.37 | 0.37 | 91 | 1010.1 |
| 20260506190057 | 55 | 140 | 2.6 | 5.2 | 0.00 | 0.37 | 0.37 | 93 | 1010.4 |
| 20260506184553 | 55 | 153 | 2.6 | 6.1 | 0.00 | 0.37 | 0.37 | 93 | 1010.3 |
| 20260506183053 | 55 | 180 | 0.9 | 7.0 | 0.00 | 0.37 | 0.37 | 95 | 1010.1 |
| 20260506181550 | 54 | 132 | 1.7 | 7.0 | 0.00 | 0.37 | 0.37 | 95 | 1010.2 |
| 20260506180101 | 54 | 111 | 0.9 | 5.2 | 0.00 | 0.37 | 0.37 | 96 | 1010.0 |
| 20260506174552 | 54 | 151 | 1.7 | 6.1 | 0.00 | 0.37 | 0.37 | 95 | 1009.9 |
| 20260506173053 | 54 | 169 | 3.5 | 7.8 | 0.00 | 0.37 | 0.37 | 95 | 1010.2 |
| 20260506171549 | 54 | 165 | 2.6 | 5.2 | 0.00 | 0.37 | 0.37 | 95 | 1010.3 |
| 20260506170057 | 54 | 161 | 0.0 | 2.6 | 0.00 | 0.37 | 0.37 | 96 | 1010.1 |
| 20260506164542 | 54 | 141 | 0.9 | 5.2 | 0.00 | 0.37 | 0.37 | 95 | 1010.0 |
| 20260506163101 | 54 | 140 | 0.0 | 4.3 | 0.00 | 0.37 | 0.37 | 96 | 1009.9 |
| 20260506161541 | 54 | 156 | 0.0 | 7.8 | 0.00 | 0.37 | 0.37 | 95 | 1009.9 |
| 20260506160034 | 54 | 142 | 3.5 | 7.8 | 0.00 | 0.37 | 0.37 | 95 | 1009.7 |
| 20260506154530 | 55 | 113 | 0.0 | 7.8 | 0.00 | 0.37 | 0.37 | 96 | 1009.5 |
| 20260506153028 | 55 | 170 | 3.5 | 7.8 | 0.01 | 0.37 | 0.37 | 95 | 1009.1 |
| 20260506151526 | 55 | 175 | 3.5 | 6.1 | 0.01 | 0.37 | 0.37 | 95 | 1009.1 |
| 20260506150026 | 56 | 174 | 2.6 | 8.7 | 0.01 | 0.37 | 0.37 | 96 | 1008.7 |
| 20260506144520 | 58 | 159 | 7.0 | 11.3 | 0.02 | 0.37 | 0.37 | 95 | 1008.4 |
| 20260506143016 | 60 | 108 | 1.7 | 5.2 | 0.01 | 0.36 | 0.36 | 97 | 1007.8 |
| 20260506141514 | 60 | 96 | 3.5 | 7.0 | 0.01 | 0.36 | 0.36 | 97 | 1007.8 |
| 20260506140013 | 60 | 67 | 4.3 | 7.0 | 0.01 | 0.36 | 0.36 | 97 | 1007.6 |
| 20260506134510 | 60 | 65 | 3.5 | 7.0 | 0.00 | 0.35 | 0.35 | 97 | 1007.6 |
| 20260506133007 | 60 | 65 | 0.9 | 5.2 | 0.00 | 0.35 | 0.35 | 97 | 1007.2 |
| 20260506131508 | 59 | 92 | 0.0 | 3.5 | 0.00 | 0.35 | 0.35 | 97 | 1006.9 |
| 20260506130035 | 59 | 93 | 0.9 | 2.6 | 0.00 | 0.35 | 0.35 | 96 | 1006.5 |
| 20260506124533 | 59 | 97 | 0.0 | 0.0 | 0.00 | 0.35 | 0.35 | 96 | 1006.5 |
| 20260506123003 | 59 | 97 | 0.0 | 0.0 | 0.01 | 0.35 | 0.35 | 96 | 1006.5 |
| 20260506121502 | 59 | 97 | 0.0 | 0.0 | 0.01 | 0.35 | 0.35 | 96 | 1006.2 |
| 20260506120031 | 58 | 97 | 0.0 | 0.0 | 0.02 | 0.35 | 0.35 | 96 | 1006.1 |
| 20260506114539 | 58 | 97 | 0.0 | 0.0 | 0.04 | 0.35 | 0.35 | 96 | 1006.0 |
| 20260506113028 | 58 | 98 | 0.0 | 0.0 | 0.04 | 0.34 | 0.34 | 96 | 1005.5 |
| 20260506111530 | 58 | 108 | 0.0 | 0.0 | 0.04 | 0.34 | 0.34 | 95 | 1005.5 |
| 20260506110029 | 58 | 108 | 0.0 | 0.0 | 0.03 | 0.33 | 0.33 | 95 | 1005.7 |
| 20260506104526 | 58 | 108 | 0.0 | 4.3 | 0.01 | 0.31 | 0.31 | 95 | 1005.6 |
| 20260506103024 | 59 | 117 | 0.9 | 3.5 | 0.01 | 0.30 | 0.30 | 95 | 1005.5 |
| 20260506101526 | 59 | 150 | 1.7 | 5.2 | 0.04 | 0.30 | 0.30 | 94 | 1005.1 |
| 20260506100022 | 59 | 106 | 0.9 | 4.3 | 0.07 | 0.30 | 0.30 | 94 | 1004.7 |
| 20260506094522 | 59 | 56 | 0.0 | 1.7 | 0.09 | 0.30 | 0.30 | 93 | 1004.2 |
| 20260506093018 | 59 | 57 | 0.9 | 3.5 | 0.08 | 0.28 | 0.28 | 93 | 1004.5 |
| 20260506091517 | 59 | 5 | 3.5 | 6.1 | 0.04 | 0.25 | 0.25 | 92 | 1004.5 |
| 20260506090015 | 59 | 81 | 1.7 | 6.1 | 0.04 | 0.23 | 0.23 | 92 | 1004.7 |
| 20260506084516 | 59 | 298 | 3.5 | 7.8 | 0.12 | 0.21 | 0.21 | 92 | 1004.5 |
| 20260506083012 | 59 | 301 | 5.2 | 7.8 | 0.15 | 0.21 | 0.21 | 92 | 1004.4 |
| 20260506081509 | 59 | 285 | 4.3 | 10.4 | 0.15 | 0.21 | 0.21 | 91 | 1004.6 |